EHI
6 6 6 6 5 6 6 6 5 4 3 2 1 2 3 3 4 5 4 3 5 5 3 0 0 1 2 3 3 4 5 5 4 3 3 4 4 4 4 3 2 1 1
3 5 6 5 5 5 5 4 4 3 3 3 2 1 1 2 4 4 3 3 4 4 2 0 0 0 1 2 3 3 4 4 3 3 3 4 4 4 4 4 3 3 3
1 3 5 5 6 6 5 4 3 3 3 4 4 2 1 2 3 3 2 2 2 2 1 0 0 0 1 2 2 2 3 3 4 4 4 5 5 5 4 4 4 4 4
1 2 3 5 6 7 6 6 5 5 5 5 5 4 3 3 3 3 2 3 2 1 0 0 0 0 1 2 2 2 2 3 4 4 4 5 6 6 5 4 3 4 4
0 1 2 3 5 7 8 9 9 8 7 7 7 6 6 4 3 3 3 3 3 2 0 0 0 0 1 1 1 2 2 3 3 3 3 5 6 7 6 4 3 3 3
0 0 1 2 4 6 8 10 11 11 9 9 8 8 8 6 3 2 2 3 2 1 0 0 0 0 0 0 0 1 1 2 3 3 3 4 5 6 6 5 4 3 3
1 1 1 2 3 5 6 7 9 10 10 10 9 9 9 7 2 0 1 2 1 0 0 0 0 0 0 0 0 0 0 0 1 2 2 3 3 4 5 5 5 4 4
2 2 2 2 3 4 4 4 6 8 9 9 9 9 8 6 2 0 0 1 1 1 2 1 0 0 0 0 0 0 0 0 0 0 1 1 1 2 3 5 5 5 5
2 2 3 3 3 2 3 3 4 5 7 7 6 6 5 3 1 0 0 0 1 2 3 2 1 0 0 0 0 0 0 0 0 0 0 0 0 1 1 3 3 3 3
1 1 2 3 2 1 1 2 2 3 3 3 3 4 3 2 1 0 0 0 1 3 3 3 1 0 0 0 0 1 1 2 1 0 0 0 0 0 0 1 1 1 1
0 0 1 2 1 0 0 1 1 1 1 1 1 2 2 1 0 0 0 0 1 2 3 3 2 1 0 0 0 1 2 2 1 0 0 0 0 1 0 0 0 0 1
0 0 0 1 1 0 0 0 0 0 0 1 1 1 1 0 0 0 0 0 0 1 2 2 2 1 0 0 0 1 1 1 1 0 0 0 0 0 0 0 0 0 1
0 1 1 0 0 0 0 0 0 0 0 1 2 2 2 1 0 0 0 0 0 0 1 1 1 0 0 0 0 0 0 0 0 0 0 0 0 0 0 0 0 0 1
1 2 2 1 0 0 0 0 0 0 0 1 2 2 3 2 1 0 0 0 0 0 0 0 0 0 0 0 0 0 0 0 0 0 0 0 0 0 0 0 0 0 0
3 3 2 1 0 0 0 0 0 0 0 0 1 1 2 2 1 0 0 0 0 0 0 0 0 0 0 0 0 0 0 0 0 0 0 0 0 0 0 0 0 0 0
3 3 2 1 0 0 0 0 0 0 0 0 0 0 1 1 0 0 0 0 0 0 0 0 0 0 0 1 1 1 0 0 0 0 0 0 0 0 0 0 0 0 0
2 2 2 1 0 0 0 0 0 0 0 0 0 0 0 0 0 0 0 0 0 0 0 0 0 0 0 1 2 2 1 0 0 0 0 0 0 0 0 0 0 0 0
1 1 1 0 0 0 0 0 0 0 0 0 0 0 0 0 0 0 0 0 0 0 0 0 0 0 0 0 1 1 1 0 0 0 0 0 0 0 0 0 0 0 0
1 0 0 0 0 0 0 0 0 0 0 0 0 0 0 0 0 0 0 0 0 0 0 0 0 0 0 0 0 0 0 0 0 0 0 0 0 0 0 0 0 0 0
1 0 0 1 0 0 0 0 0 0 0 0 0 0 0 0 0 0 0 0 0 0 0 0 0 0 0 0 0 0 0 0 0 0 0 0 0 0 0 0 0 0 0
1 0 0 0 0 0 0 0 0 0 0 0 0 0 0 0 0 0 0 0 0 0 0 0 0 0 0 0 0 0 0 1 1 0 0 0 0 0 0 0 0 0 0
0 0 0 0 0 0 0 0 0 0 0 0 0 0 0 0 0 0 0 0 0 0 0 0 0 0 0 0 0 0 1 2 2 1 0 0 0 0 0 0 0 0 0
0 0 0 0 0 0 0 0 0 0 0 0 0 0 0 0 0 0 0 0 0 0 0 0 0 0 0 0 1 1 1 2 2 1 0 0 0 0 0 0 0 0 0
0 0 0 0 0 0 0 0 0 0 0 0 0 0 0 0 0 0 0 0 0 0 0 0 1 1 1 1 1 2 1 1 1 0 0 0 0 0 0 0 0 0 0
0 0 0 0 0 0 0 0 0 0 0 0 0 0 0 0 0 0 0 1 1 1 1 1 2 2 1 1 1 1 1 0 0 0 0 0 0 0 0 0 0 0 0
0 0 0 0 0 0 0 0 0 0 0 0 0 0 0 0 0 0 0 1 1 2 2 2 2 2 1 0 0 0 0 0 0 0 0 0 0 0 0 0 0 0 0
Wind_Speed
3 3 4 4 5 5 5 5 5 5 5 6 6 6 6 6 6 6 6 6 7 6 6 6 6 6 5 5 5 5 5 5 6 4 3 2 2 3 3 4 4 5 4
3 3 4 4 5 5 5 5 5 5 6 6 6 6 6 7 7 7 8 7 7 7 7 7 7 5 6 6 5 6 5 5 5 6 4 3 3 3 3 4 4 4 4
3 3 3 4 4 5 5 5 5 5 5 5 6 6 6 6 6 7 7 7 7 7 7 7 8 7 7 6 6 6 5 5 5 5 5 3 3 3 4 4 4 4 5
4 3 3 3 3 4 4 4 5 5 5 5 5 6 6 6 6 6 6 6 6 6 7 7 7 8 8 7 6 6 6 5 5 5 5 4 3 3 4 3 3 3 4
4 3 3 3 3 3 3 3 4 4 5 5 5 6 5 5 5 5 6 6 6 6 6 6 7 6 6 6 6 5 5 5 5 5 4 4 3 3 3 3 4 4 3
4 3 3 3 3 3 3 3 3 3 4 4 5 5 5 4 2 2 4 5 6 6 6 6 6 7 6 7 7 7 7 7 7 6 5 4 4 5 3 4 4 4 4
4 3 3 3 3 3 3 3 3 3 4 4 4 5 4 3 3 3 5 6 6 6 6 6 6 5 6 6 6 8 9 9 9 8 7 6 6 5 5 6 4 5 5
4 3 3 3 3 3 3 3 3 3 3 4 4 4 4 4 5 5 5 7 7 7 7 7 7 7 6 6 6 6 7 7 8 8 7 7 6 5 5 6 5 6 6
4 3 3 3 3 3 3 3 3 3 4 4 4 5 5 4 5 6 7 6 6 7 7 7 7 7 4 4 7 7 7 6 6 7 7 6 5 5 5 5 5 6 5
3 3 3 3 3 3 2 2 2 3 3 4 4 4 5 5 5 7 8 6 6 6 6 6 6 7 5 6 7 7 7 7 6 5 6 7 8 9 9 8 7 6 6
3 2 2 2 2 3 2 2 2 3 3 4 4 4 5 5 6 8 8 6 6 6 5 5 3 5 7 7 8 7 6 6 6 6 6 6 6 6 7 7 7 6 6
3 3 2 3 3 2 2 3 3 3 4 4 4 5 4 4 5 6 8 8 7 6 6 5 2 3 5 7 7 6 6 6 6 5 5 5 5 5 5 5 6 6 6
3 3 3 3 3 3 3 4 4 4 4 4 4 4 4 3 3 5 7 8 8 7 5 2 2 4 5 7 9 8 8 7 6 6 6 5 4 3 4 4 5 6 7
4 4 4 4 4 4 4 4 4 4 4 4 4 4 4 3 3 3 4 4 6 6 5 3 5 6 7 6 5 7 7 6 5 5 5 4 4 4 5 4 4 5 6
4 4 4 5 4 4 4 4 5 4 4 5 4 4 4 4 2 1 3 3 4 3 3 4 4 4 5 5 5 5 5 5 5 5 5 5 5 5 4 4 4 5 5
5 5 4 4 4 4 4 4 2 4 3 5 6 7 5 3 2 2 3 4 3 3 4 5 5 5 6 6 6 5 5 5 4 4 5 5 5 4 4 4 5 5 5
5 4 4 4 4 5 4 4 4 4 5 7 7 7 7 5 4 5 5 4 4 5 6 6 6 6 6 6 6 5 5 4 3 4 4 4 4 4 4 4 4 4 4
6 5 5 5 5 5 4 4 4 4 4 4 5 7 7 7 7 7 6 5 4 5 6 6 6 6 5 6 5 5 4 4 4 4 4 4 4 4 4 4 4 4 4
5 4 4 4 4 4 4 4 4 5 4 4 3 3 4 5 6 6 8 6 6 5 6 6 5 5 5 5 5 4 4 4 4 4 4 5 5 5 4 4 4 3 4
4 3 4 4 4 4 4 4 4 4 4 4 4 2 2 4 4 4 6 6 6 5 5 5 5 5 5 5 5 4 4 4 4 5 4 4 5 5 5 5 4 4 4
4 3 4 4 4 4 4 4 4 4 4 4 4 2 3 4 4 4 4 5 5 5 5 5 5 5 5 5 5 4 4 4 4 4 4 4 4 4 4 4 4 4 4
4 3 4 4 4 3 4 4 4 4 4 5 4 3 4 5 4 4 4 4 4 4 4 4 5 4 4 4 4 4 4 4 4 4 4 4 4 4 4 4 4 4 3
4 3 3 4 3 3 4 4 4 4 4 4 4 3 3 4 4 4 4 4 4 3 3 4 4 4 4 4 4 4 4 4 4 4 4 4 4 4 4 4 5 4 3
4 3 3 3 3 3 4 4 4 4 4 4 4 3 3 4 4 4 4 4 4 4 4 4 3 4 6 5 4 4 3 3 4 4 5 5 5 4 4 4 4 4 3
4 3 3 3 3 3 3 3 3 4 4 3 3 4 4 3 4 4 4 4 4 4 4 4 3 4 5 6 5 3 1 1 1 3 4 4 4 4 4 4 3 3 3
4 4 4 3 3 3 3 3 3 4 4 4 4 3 3 4 4 4 4 3 4 3 4 4 4 4 4 4 3 1 1 2 1 2 4 3 3 3 3 3 3 4 3
Wind_Direction
176 176 178 183 189 194 195 197 196 197 198 207 209 210 214 215 214 221 234 228 229 232 234 235 241 258 260 259 253 252 253 259 268 279 287 286 279 282 288 284 272 263 222
171 173 178 181 187 195 198 200 200 204 207 207 211 218 221 221 221 225 231 231 232 234 235 240 245 243 247 259 259 257 256 257 261 269 273 267 268 261 267 271 272 269 270
162 165 171 181 187 197 201 201 205 210 213 213 214 221 228 230 230 231 234 234 235 238 240 243 246 246 248 249 252 253 254 249 252 257 261 265 257 255 265 261 266 268 268
162 166 173 182 188 195 200 206 209 211 215 216 219 227 234 237 233 231 233 235 239 243 246 248 249 248 250 250 247 245 249 253 248 251 255 252 248 248 252 260 264 257 268
165 171 181 185 183 187 193 204 212 217 220 221 225 228 232 235 232 231 231 234 240 245 246 248 251 255 266 263 265 259 253 251 252 253 255 257 256 258 259 266 268 271 264
173 175 174 180 185 188 197 205 208 218 227 225 227 230 232 232 145 193 244 245 245 246 247 249 247 234 230 229 241 254 263 257 259 262 261 260 262 263 265 265 269 273 271
177 179 179 186 189 198 204 203 211 221 227 229 230 230 229 209 166 201 237 251 250 250 248 248 249 244 235 239 225 224 235 242 248 259 262 264 262 260 262 260 263 274 280
175 182 186 192 196 200 208 216 227 228 226 231 233 229 230 214 186 204 230 242 249 248 246 246 250 252 247 247 249 247 245 233 230 235 249 256 258 258 252 257 263 262 259
175 183 192 199 201 205 217 232 237 233 229 230 232 232 237 227 199 205 226 243 242 246 246 245 245 247 236 236 248 251 254 252 234 230 245 255 266 260 259 257 252 256 266
185 192 194 204 208 212 221 236 238 240 238 235 231 234 236 235 207 207 224 244 245 250 246 243 241 242 227 222 240 248 253 256 253 229 227 231 234 229 222 236 252 260 270
188 187 189 203 215 217 221 225 236 245 250 252 245 238 236 236 215 210 223 245 248 252 252 245 230 198 218 227 240 249 255 268 257 246 241 236 230 226 220 221 235 255 268
186 191 198 213 224 212 228 235 237 247 247 246 242 248 243 229 222 211 216 234 262 260 261 261 239 182 219 231 235 242 242 246 248 244 247 244 241 238 233 232 233 244 256
194 203 212 219 230 230 229 232 235 240 249 247 243 248 250 241 210 204 215 224 237 251 266 300 269 225 237 235 232 232 232 238 240 241 244 248 250 252 249 235 228 233 242
205 207 215 220 224 227 242 242 248 248 252 254 257 258 257 251 240 220 220 212 214 231 250 232 220 232 243 258 236 221 231 241 246 248 249 252 250 238 236 239 240 238 246
212 215 219 223 227 229 239 255 259 260 267 269 267 266 264 257 253 264 251 238 240 241 249 243 238 234 234 233 234 233 231 225 229 238 243 243 240 239 242 239 243 251 256
219 220 226 233 232 235 236 234 253 265 253 257 268 276 277 266 213 220 243 259 259 236 244 243 242 247 250 248 241 232 227 228 231 235 237 238 238 237 239 236 237 244 254
236 235 238 239 236 239 239 244 245 240 241 244 246 253 259 252 235 230 234 239 229 211 232 244 245 247 252 255 251 247 242 230 231 237 238 237 238 236 235 234 234 241 250
240 235 242 242 241 243 245 247 249 254 250 243 229 228 235 233 229 222 210 207 214 215 235 243 247 247 249 257 256 250 247 231 221 232 233 231 233 238 243 240 234 241 251
243 238 242 251 248 244 244 246 249 252 259 259 249 205 222 223 216 212 200 226 232 226 233 241 247 250 250 253 255 249 247 236 231 232 232 233 234 238 243 250 246 226 248
242 244 254 251 247 243 239 240 243 249 256 261 261 263 228 224 223 205 211 232 242 242 242 245 246 247 247 253 248 240 238 237 230 231 234 233 234 239 238 243 251 246 244
243 219 224 244 247 249 248 245 247 252 255 259 262 267 264 258 247 240 232 233 241 247 248 251 251 250 249 251 247 236 235 240 241 242 238 238 241 242 248 245 240 246 250
250 238 226 239 247 250 256 250 246 248 252 258 264 243 221 251 255 253 252 249 247 247 252 256 255 255 259 262 259 252 240 239 238 241 245 245 240 241 242 246 244 242 240
248 241 235 238 244 245 248 250 250 252 255 256 259 259 243 253 259 259 262 261 259 257 251 247 254 261 262 257 254 250 247 244 241 241 241 240 240 241 241 244 244 242 242
241 237 232 235 246 246 249 254 256 257 258 257 261 262 260 258 261 263 266 264 259 257 256 251 253 264 271 270 259 249 251 258 251 239 238 238 241 244 242 240 238 234 232
240 238 231 232 244 252 255 256 261 266 267 265 263 262 260 257 259 262 261 261 262 260 261 258 257 266 273 267 263 266 37 83 261 266 236 229 231 235 239 238 236 239 239
237 238 238 234 238 251 259 266 269 273 271 270 270 270 271 269 268 268 267 267 264 262 266 262 265 269 269 261 270 297 114 139 204 266 255 231 227 228 231 231 230 237 236